Tracking 28052 objects as of 21-Sep-2023
HD Live streaming from Space Station
objects crossing your sky now

KSF2-D

Track KSF2-D now!
10-day predictions


NORAD ID: 52190
Int'l Code: 2022-033AK
Perigee: 395.8 km
Apogee: 402.8 km
Inclination: 97.3 °
Period: 92.4 minutes
Semi major axis: 6770 km
RCS: Unknown
Launch date: April 1, 2022
Source: Luxembourg (LUXE)
Launch site: AIR FORCE EASTERN TEST RANGE (AFETR)
Your satellite tracking list
Your tracking list is empty




NASA's NSSDC Master Catalog

Two Line Element Set (TLE):
1 52190U 22033AK  23264.39641320  .00116040  00000-0  15050-2 0  9997
2 52190  97.3374 349.8604 0005168 163.8040 196.3382 15.58445126 82382
Source of the keplerian elements: AFSPC